Date,TemperatureHighF,TemperatureAvgF,TemperatureLowF,DewpointHighF,DewpointAvgF,DewpointLowF,HumidityHigh,HumidityAvg,HumidityLow,PressureMaxIn,PressureMinIn,WindSpeedMaxMPH,WindSpeedAvgMPH,GustSpeedMaxMPH,PrecipitationSumIn
2013-1-1,23,9,-1,22,6,-4,97,88,81,29.87,29.63,17,5,17,0.00
2013-1-2,4,-4,-13,0,-7,-17,88,84,78,30.23,29.86,16,2,16,0.00
2013-1-3,4,-5,-15,1,-9,-19,89,84,75,30.27,29.99,6,1,6,0.00
2013-1-4,24,17,4,23,16,1,95,93,89,29.99,29.71,20,3,20,0.00
2013-1-5,24,14,4,22,11,2,100,89,80,30.24,29.69,16,4,16,0.00
2013-1-6,23,17,6,21,15,2,95,92,85,30.21,29.93,6,1,6,0.01
2013-1-7,22,12,1,21,9,-2,95,88,77,30.37,29.96,7,1,7,0.01
2013-1-8,30,23,7,24,20,4,96,87,75,30.38,30.20,14,2,14,0.00
2013-1-9,31,28,21,29,25,20,100,88,75,30.39,29.86,16,4,16,0.11
2013-1-10,30,26,17,28,23,15,96,90,81,30.54,29.88,26,5,26,0.01
2013-1-11,30,21,8,25,17,5,95,83,64,30.56,30.17,15,4,15,0.02
2013-1-12,38,32,27,35,31,25,97,95,90,30.18,30.06,9,2,10,0.09
2013-1-13,50,42,30,44,39,30,100,90,69,30.13,29.86,13,3,13,0.00
2013-1-14,48,36,25,47,33,19,100,89,69,30.19,29.74,23,4,23,0.02
2013-1-15,25,21,15,21,18,13,93,86,78,30.30,30.19,10,1,10,0.00
2013-1-16,25,21,17,24,18,15,95,91,84,30.25,29.75,9,2,9,0.00
2013-1-17,25,12,-5,24,9,-10,95,85,68,30.15,29.73,16,3,16,0.00
2013-1-18,7,-2,-10,-3,-9,-14,85,71,54,30.40,30.11,16,2,16,0.00
2013-1-19,29,18,4,26,14,-3,93,85,69,30.33,29.82,9,2,9,0.00
2013-1-20,38,23,2,30,18,-4,96,83,64,29.82,29.38,33,7,33,0.04
2013-1-21,9,2,-7,-2,-5,-10,86,73,56,30.02,29.82,20,2,20,0.00
2013-1-22,8,0,-10,2,-4,-14,88,82,74,30.02,29.83,13,2,13,0.00
2013-1-23,-9,-15,-21,-13,-21,-25,92,75,63,30.19,30.02,15,2,15,0.00
2013-1-24,-2,-12,-21,-11,-17,-25,92,76,57,30.34,30.10,22,4,22,0.00
2013-1-25,4,-3,-8,-4,-8,-13,83,79,67,30.36,30.16,14,2,14,0.00
2013-1-26,6,0,-8,-1,-6,-11,86,76,58,30.26,30.12,13,3,13,0.00
2013-1-27,8,0,-6,0,-5,-10,86,78,61,30.55,30.26,16,2,16,0.00
2013-1-28,19,7,-7,12,1,-12,91,77,43,30.53,30.11,13,2,13,0.00
2013-1-29,31,20,5,24,15,2,93,83,71,30.24,30.06,15,4,15,0.11
2013-1-30,52,41,26,49,40,24,97,95,89,30.06,29.28,23,7,23,0.59
2013-1-31,49,33,10,48,29,7,100,88,62,29.35,28.72,34,8,35,0.78
2013-2-1,10,4,-2,7,1,-5,88,84,79,30.10,29.34,16,3,16,0.00
2013-2-2,12,5,-5,8,1,-9,90,82,66,30.19,30.08,12,2,12,0.00
2013-2-3,20,9,-2,8,2,-5,91,76,46,30.08,29.75,12,1,12,0.00
2013-2-4,14,6,-3,9,1,-10,90,80,53,29.89,29.66,21,3,21,0.00
2013-2-5,11,1,-10,-2,-8,-14,92,66,42,30.06,29.89,12,2,12,0.00
2013-2-6,22,10,-3,18,2,-11,91,73,46,30.31,29.94,21,4,21,0.00
2013-2-7,6,-3,-12,-9,-13,-16,92,62,37,30.61,30.31,10,2,10,0.00
2013-2-8,12,8,2,8,2,-12,97,79,49,30.57,30.06,25,11,25,0.00
2013-2-9,9,4,-1,6,0,-5,95,84,81,30.33,29.98,20,5,20,0.00
2013-2-10,21,6,-7,7,-1,-11,87,71,48,30.51,30.33,7,1,7,0.01
2013-2-11,30,22,8,29,14,-1,97,74,44,30.38,29.57,15,4,15,0.00
2013-2-12,31,28,25,30,26,23,97,94,91,29.75,29.52,18,4,18,0.00
2013-2-13,28,24,21,23,22,19,94,91,80,29.80,29.73,14,2,14,0.00
2013-2-14,27,23,20,22,19,18,95,86,71,29.98,29.74,9,1,9,0.00
2013-2-15,36,28,21,29,23,17,91,81,65,29.95,29.85,17,3,17,0.00
2013-2-16,26,19,9,19,13,4,92,75,60,29.95,29.87,12,2,12,0.00
2013-2-17,9,6,3,5,2,-1,88,82,74,29.87,29.52,26,5,26,0.00
2013-2-18,12,4,-3,4,-2,-6,86,76,63,30.19,29.68,23,6,23,0.00
2013-2-19,36,19,0,23,4,-6,88,57,28,30.22,29.75,23,6,23,0.00
2013-2-20,21,18,14,19,16,12,92,90,88,29.63,29.48,23,6,23,0.00
2013-2-21,19,9,3,17,6,0,96,88,83,30.34,29.64,14,2,14,0.00
2013-2-22,30,21,14,22,17,12,93,86,69,30.48,30.31,12,2,12,0.01
2013-2-23,26,24,20,25,21,17,95,90,84,30.32,29.95,17,8,17,0.00
2013-2-24,29,26,24,27,25,22,96,93,90,29.96,29.78,14,3,14,0.00
2013-2-25,32,26,20,27,23,18,95,89,81,30.25,29.90,7,1,7,0.00
2013-2-26,33,29,24,25,24,22,94,81,65,30.34,30.20,14,3,14,0.06
2013-2-27,30,27,25,26,23,20,94,86,79,30.20,29.68,33,15,33,0.00
2013-2-28,34,29,25,32,27,23,96,93,88,29.69,29.55,16,4,16,0.15
2013-3-1,30,26,23,27,24,21,100,93,87,29.70,29.54,7,1,7,0.08
2013-3-2,26,24,22,24,22,20,96,94,90,29.72,29.67,11,2,12,0.00
2013-3-3,25,21,18,23,20,17,95,94,91,29.69,29.62,12,1,12,0.01
2013-3-4,19,17,16,17,15,14,95,92,87,29.88,29.61,9,2,9,0.00
2013-3-5,33,25,16,30,23,15,100,93,88,30.14,29.88,16,2,16,0.16
2013-3-6,32,28,23,27,23,18,94,83,70,30.25,30.14,23,10,23,0.01
2013-3-7,28,24,22,21,19,17,87,80,72,30.25,30.16,18,6,18,0.00
2013-3-8,41,30,22,25,20,18,87,70,43,30.30,30.14,16,2,16,0.19
2013-3-9,47,30,15,24,19,11,100,67,34,30.37,30.27,12,1,12,0.00
2013-3-10,50,35,22,26,21,16,87,58,29,30.36,30.16,13,4,13,0.00
2013-3-11,52,40,31,29,26,23,81,60,35,30.18,29.97,17,4,17,0.00
2013-3-12,43,39,33,40,34,22,100,84,49,29.99,29.68,20,8,20,0.45
2013-3-13,34,30,24,32,27,22,97,89,74,29.77,29.70,12,2,12,0.05
2013-3-14,25,19,7,23,15,3,94,86,75,29.82,29.65,16,3,16,0.02
2013-3-15,26,10,4,18,6,1,93,82,45,29.83,29.62,9,1,12,0.02
2013-3-16,18,13,7,14,8,3,91,80,68,29.91,29.69,12,1,12,0.00
2013-3-17,17,8,1,8,0,-6,90,70,44,30.35,29.90,20,3,20,0.00
2013-3-18,26,14,-3,3,-2,-8,80,51,31,30.47,30.24,15,2,15,0.02
2013-3-19,23,19,16,16,13,1,93,81,38,30.25,29.75,34,14,35,0.00
2013-3-20,23,19,15,20,17,13,94,92,88,29.76,29.61,15,3,15,0.00
2013-3-21,29,20,11,18,15,7,93,81,57,29.71,29.63,13,3,13,0.10
2013-3-22,26,17,6,22,13,2,93,85,71,29.69,29.63,12,2,12,0.01
2013-3-23,25,22,17,24,20,15,94,92,88,29.73,29.53,20,5,20,0.00
2013-3-24,32,26,22,28,24,20,95,90,82,29.83,29.72,12,2,12,0.06
2013-3-25,38,28,16,26,22,15,100,79,55,29.81,29.61,14,3,14,0.18
2013-3-26,36,29,19,27,23,17,93,77,65,29.76,29.62,14,3,14,0.03
2013-3-27,35,30,23,31,26,20,96,87,73,29.91,29.73,12,1,12,0.04
2013-3-28,40,33,28,34,30,27,97,89,71,30.02,29.90,12,2,12,0.06
2013-3-29,43,34,30,33,30,28,96,85,60,30.02,29.97,13,2,13,0.02
2013-3-30,42,33,25,28,21,13,95,64,35,30.09,30.01,13,2,13,0.00
2013-3-31,47,34,16,26,19,13,90,58,33,30.09,29.76,24,6,24,0.00
2013-4-1,42,32,19,35,29,15,95,88,64,29.76,29.45,14,5,15,0.06
2013-4-2,22,17,13,16,12,8,92,81,62,29.79,29.64,21,6,21,0.00
2013-4-3,24,20,14,18,14,9,90,78,69,30.10,29.78,21,6,21,0.01
2013-4-4,42,30,17,18,13,9,75,52,30,30.21,29.91,20,5,20,0.15
2013-4-5,40,32,22,28,21,14,91,65,45,29.91,29.72,20,4,20,0.01
2013-4-6,28,20,12,15,7,3,79,57,39,30.34,29.84,23,6,23,0.01
2013-4-7,44,32,17,32,17,7,77,54,40,30.34,29.84,24,8,24,0.00
2013-4-8,43,36,32,33,30,27,95,81,60,30.11,29.85,15,3,15,0.03
2013-4-9,38,34,32,37,32,28,100,93,69,30.05,29.85,21,5,21,0.48
2013-4-10,44,37,32,38,33,28,100,88,67,29.99,29.90,10,1,10,0.06
2013-4-11,36,31,23,28,19,14,92,63,42,30.21,29.88,14,3,14,0.00
2013-4-12,27,25,22,24,19,12,94,78,55,30.23,29.88,31,12,31,0.00
2013-4-13,37,30,26,34,28,23,96,92,85,29.90,29.81,17,3,18,0.25
2013-4-14,39,33,29,35,30,27,97,89,65,30.20,29.88,12,2,12,0.13
2013-4-15,49,38,24,31,27,23,96,70,39,30.36,30.19,13,3,13,0.00
2013-4-16,51,44,35,47,38,30,97,82,63,30.28,29.87,24,7,24,0.33
2013-4-17,48,38,29,39,28,15,95,68,42,30.36,29.98,18,4,18,0.24
2013-4-18,48,36,27,39,25,15,83,63,45,30.41,29.96,21,8,21,0.01
2013-4-19,66,57,43,55,49,39,95,75,50,29.96,29.43,27,11,27,0.74
2013-4-20,42,36,27,41,30,21,97,78,50,30.17,29.54,20,5,20,0.48
2013-4-21,39,29,22,22,18,13,90,65,36,30.73,30.17,25,4,25,0.01
2013-4-22,46,34,19,21,16,12,84,50,27,30.79,30.61,22,8,22,0.00
2013-4-23,45,36,26,34,26,16,92,69,49,30.61,30.19,21,10,21,0.00
2013-4-24,66,50,36,50,40,30,96,72,29,30.19,29.62,23,6,23,0.01
2013-4-25,54,41,29,48,31,20,91,68,42,30.31,29.59,21,5,21,0.03
2013-4-26,54,39,24,34,26,21,92,63,35,30.44,30.31,15,3,15,0.00
2013-4-27,56,42,28,35,28,22,96,63,30,30.43,30.30,12,2,12,0.00
2013-4-28,63,48,28,34,30,25,92,54,29,30.33,30.16,13,3,13,0.00
2013-4-29,64,53,43,40,35,31,73,52,36,30.19,30.09,15,4,15,0.00
2013-4-30,66,55,40,45,40,33,86,60,38,30.29,30.17,12,2,12,0.00
2013-5-1,70,57,37,43,37,31,84,48,34,30.41,30.29,12,2,12,0.00
2013-5-2,74,55,38,43,38,30,84,56,32,30.41,30.33,20,4,20,0.00
2013-5-3,64,52,38,41,36,29,78,57,42,30.49,30.34,20,6,20,0.00
2013-5-4,68,55,36,43,36,31,96,54,27,30.35,30.18,13,3,13,0.00
2013-5-5,72,57,38,41,36,33,83,48,26,30.22,30.08,12,3,12,0.00
2013-5-6,75,60,39,43,37,31,90,47,27,30.15,29.99,14,2,14,0.00
2013-5-7,78,62,42,42,34,28,77,40,21,30.08,29.99,14,2,14,0.00
2013-5-8,74,61,44,53,43,29,91,56,27,30.12,30.02,24,7,24,0.01
2013-5-9,64,56,52,58,53,51,100,93,70,30.02,29.81,17,4,17,1.24
2013-5-10,70,58,50,56,52,48,100,83,52,29.92,29.80,17,2,17,0.01
2013-5-11,60,55,48,57,53,47,97,93,87,29.80,29.55,15,5,15,0.49
2013-5-12,54,46,35,48,42,27,100,87,63,29.67,29.52,14,2,14,0.02
2013-5-13,43,36,32,31,27,24,87,70,53,30.03,29.65,22,5,22,0.00
2013-5-14,47,38,27,31,27,24,92,66,41,30.06,29.98,16,3,16,0.00
2013-5-15,59,44,29,45,31,21,97,67,26,30.01,29.58,24,6,24,0.31
2013-5-16,61,49,43,48,43,38,100,80,49,29.80,29.55,20,4,20,0.00
2013-5-17,55,45,39,41,38,36,96,79,51,30.20,29.80,14,3,14,0.02
2013-5-18,62,49,34,43,37,33,97,69,39,30.30,30.20,13,2,13,0.00
2013-5-19,65,52,38,47,39,30,96,67,31,30.29,30.09,20,4,20,0.13
2013-5-20,65,54,48,58,52,47,100,91,70,30.09,29.91,5,0,13,1.17
2013-5-21,52,50,45,51,48,44,97,94,90,30.01,29.85,10,4,23,0.85
2013-5-22,59,50,45,56,49,44,100,95,87,29.88,29.80,8,3,20,0.28
2013-5-23,68,59,50,63,57,50,100,94,80,29.81,29.65,9,1,18,1.54
2013-5-24,55,47,40,55,46,38,100,98,96,29.92,29.61,6,1,17,0.66
2013-5-25,40,36,32,39,35,31,97,97,96,29.93,29.79,9,2,20,0.77
2013-5-26,41,36,32,40,36,32,100,97,94,30.02,29.76,5,1,17,0.17
2013-5-27,57,44,30,42,35,29,100,73,44,30.17,30.02,6,1,20,0.00
2013-5-28,67,52,34,42,37,32,97,61,32,30.22,30.11,6,1,13,0.00
2013-5-29,55,52,50,54,47,38,97,84,61,30.12,29.91,9,2,20,0.09
2013-5-30,75,64,55,61,59,55,100,85,57,30.02,29.93,6,1,16,0.00
2013-5-31,83,70,55,67,62,54,100,77,51,30.01,29.83,6,1,15,0.00
2013-6-1,83,72,60,67,62,58,95,73,50,29.87,29.72,7,1,16,0.00
2013-6-2,82,68,60,69,63,59,100,87,60,29.78,29.54,12,1,25,0.25
2013-6-3,66,58,46,58,54,43,97,85,68,29.76,29.66,6,1,14,0.00
2013-6-4,56,47,43,43,41,38,91,78,55,30.04,29.74,6,1,16,0.00
2013-6-5,62,50,37,41,38,34,92,67,39,30.17,30.04,5,1,13,0.00
2013-6-6,55,48,40,50,44,38,94,86,66,30.18,30.11,7,0,14,0.08
2013-6-7,50,48,46,47,45,42,98,90,79,30.12,29.91,14,5,26,0.40
2013-6-8,59,53,48,56,51,46,100,95,85,29.96,29.74,13,2,22,0.57
2013-6-9,64,55,49,56,53,47,100,93,73,30.15,29.95,3,0,13,0.26
2013-6-10,72,57,45,53,48,41,100,74,36,30.19,29.95,6,1,12,0.00
2013-6-11,57,51,49,51,49,48,97,94,73,29.95,29.58,9,3,17,0.68
2013-6-12,53,50,48,52,50,47,100,97,96,29.81,29.56,6,1,21,0.15
2013-6-13,67,55,47,56,50,44,100,83,44,29.80,29.66,5,1,10,0.00
2013-6-14,72,58,47,53,48,41,97,72,38,29.75,29.65,6,0,15,0.00
2013-6-15,65,55,43,45,42,37,88,62,45,29.86,29.76,6,1,16,0.00
2013-6-16,67,55,47,55,49,43,100,80,50,29.86,29.66,7,1,13,0.48
2013-6-17,68,58,51,57,53,49,100,85,62,29.85,29.69,7,1,20,0.00
2013-6-18,64,53,43,49,44,41,95,75,48,29.95,29.84,3,0,10,0.00
2013-6-19,64,53,41,47,43,39,96,72,43,30.15,29.93,6,1,15,0.00
2013-6-20,68,55,40,47,43,39,97,68,41,30.23,30.15,7,1,14,0.00
2013-6-21,74,60,46,54,50,44,95,72,46,30.19,30.16,3,1,13,0.00
2013-6-22,66,60,54,61,56,50,96,89,77,30.18,30.08,2,0,5,0.01
2013-6-23,76,66,58,69,63,57,100,92,76,30.10,29.90,3,0,10,0.61
2013-6-24,80,69,60,69,66,59,100,91,67,29.91,29.77,3,0,20,0.12
2013-6-25,79,67,58,69,63,57,100,88,68,29.83,29.68,6,1,14,0.01
2013-6-26,70,65,61,66,63,60,100,94,83,29.76,29.67,3,0,10,0.04
2013-6-27,75,66,60,67,63,59,100,89,66,29.75,29.69,7,1,15,0.08
2013-6-28,62,58,55,59,57,54,97,93,87,29.72,29.45,14,6,25,0.38
2013-6-29,75,63,59,65,61,58,100,93,65,29.61,29.45,8,1,16,0.70
2013-6-30,75,65,58,64,61,58,100,87,65,29.89,29.61,6,0,12,0.00
2013-7-1,71,64,58,63,60,54,100,88,73,30.07,29.88,2,0,6,0.15
2013-7-2,59,57,54,58,56,53,100,96,92,30.15,30.03,9,4,17,0.84
2013-7-3,76,66,57,72,64,56,100,94,78,30.15,30.07,5,0,12,0.47
2013-7-4,83,70,62,71,66,62,100,91,62,30.14,30.01,3,0,13,0.07
2013-7-5,80,72,64,70,67,63,100,86,67,30.06,29.95,5,0,13,0.00
2013-7-6,78,69,64,68,64,60,100,87,55,29.98,29.91,3,0,13,0.00
2013-7-7,78,68,60,66,62,58,97,82,58,29.94,29.86,3,0,16,0.04
2013-7-8,72,65,62,68,64,62,100,96,84,30.00,29.87,2,0,6,0.27
2013-7-9,73,66,62,68,64,61,97,92,81,30.04,29.96,7,2,13,0.05
2013-7-10,71,66,62,66,64,61,97,93,83,29.98,29.69,8,2,17,0.01
2013-7-11,73,64,54,66,60,53,100,87,61,29.97,29.68,5,0,14,0.48
2013-7-12,76,62,50,58,54,49,100,77,47,30.19,29.97,3,0,10,0.00
2013-7-13,80,68,56,63,59,53,95,73,48,30.26,30.19,5,1,10,0.00
2013-7-14,82,70,60,68,64,60,100,80,56,30.25,30.15,5,0,9,0.00
2013-7-15,85,71,61,69,65,61,100,82,56,30.16,30.06,5,0,12,0.00
2013-7-16,83,72,63,68,64,59,100,77,49,30.13,30.08,5,0,12,0.00
2013-7-17,86,72,60,70,65,59,100,81,54,30.13,29.89,5,1,14,0.16
2013-7-18,80,70,64,70,66,63,100,88,66,29.97,29.86,3,0,10,0.09
2013-7-19,86,73,64,72,68,63,100,86,59,29.87,29.52,8,2,23,0.22
2013-7-20,72,66,55,67,63,54,100,91,73,29.76,29.55,5,0,15,0.16
2013-7-21,68,58,48,54,50,46,98,77,51,30.02,29.76,3,0,12,0.00
2013-7-22,73,60,45,63,54,44,97,81,51,30.02,29.84,7,1,12,0.00
2013-7-23,68,63,60,66,62,58,100,95,90,29.84,29.50,3,0,9,0.30
2013-7-24,62,57,49,62,55,46,100,95,79,29.99,29.50,3,0,15,0.14
2013-7-25,68,56,45,57,49,42,94,80,57,30.12,29.99,3,0,10,0.00
2013-7-26,69,61,54,60,56,51,93,84,71,30.10,29.94,5,0,9,0.00
2013-7-27,76,65,56,60,57,54,96,79,52,30.00,29.93,5,0,9,0.00
2013-7-28,64,61,58,60,58,56,94,89,85,29.96,29.93,2,0,6,0.00
2013-7-30,57,56,56,54,53,53,92,90,87,30.05,30.03,1,0,14,0.01
2013-7-31,73,62,52,59,55,50,100,80,55,30.09,29.99,3,0,12,0.00
2013-8-1,74,64,54,60,57,52,97,79,54,29.99,29.77,10,3,20,0.00
2013-8-2,72,63,56,62,58,53,100,83,56,29.77,29.68,5,0,14,0.05
2013-8-3,65,57,53,58,54,52,100,91,67,29.77,29.67,6,0,20,0.29
2013-8-4,65,55,50,57,53,48,100,93,68,29.83,29.73,6,0,17,0.18
2013-8-5,60,51,46,50,46,41,97,84,51,30.02,29.83,7,1,18,0.11
2013-8-6,71,58,45,55,50,45,100,75,45,30.11,30.02,3,0,10,0.00
2013-8-7,72,62,49,58,54,48,97,77,52,30.13,30.01,9,2,14,0.00
2013-8-8,74,65,57,66,61,55,97,88,72,30.01,29.92,8,1,14,0.14
2013-8-9,69,65,63,67,64,62,100,98,92,29.94,29.69,5,0,10,0.44
2013-8-10,64,59,52,64,54,48,100,82,63,29.95,29.69,5,1,20,0.00
2013-8-11,70,57,45,54,50,44,100,78,54,30.02,29.94,5,1,15,0.00
2013-8-12,71,61,52,56,53,50,97,77,52,29.98,29.87,6,1,12,0.00
2013-8-13,66,59,51,60,56,50,97,89,73,29.87,29.62,6,1,13,0.00
2013-8-14,61,55,50,58,52,47,96,88,75,29.86,29.59,5,0,17,0.00
2013-8-15,66,56,45,51,48,44,97,78,56,30.05,29.86,5,1,15,0.00
2013-8-16,69,58,49,57,52,47,100,82,57,30.17,30.03,5,0,12,0.45
2013-8-17,68,56,48,56,50,47,100,82,52,30.26,30.18,3,0,12,0.00
2013-8-18,73,58,44,57,51,44,100,81,54,30.26,30.04,5,0,10,0.00
2013-8-19,75,63,51,62,57,50,100,81,60,30.04,29.89,6,0,20,0.00
2013-8-20,76,66,57,61,58,56,97,79,51,30.04,29.94,5,0,17,0.00
2013-8-21,79,67,57,64,60,56,100,79,54,30.08,29.93,7,1,17,0.00
2013-8-22,77,67,59,67,62,58,97,84,66,29.94,29.73,3,0,13,0.05
2013-8-23,65,58,46,54,49,44,94,73,51,30.16,29.89,6,1,20,0.06
2013-8-24,71,56,44,51,47,43,100,76,39,30.32,30.16,3,0,12,0.00
2013-8-25,72,58,46,55,50,45,100,79,46,30.35,30.09,6,0,10,0.00
2013-8-26,63,59,55,63,58,52,100,98,81,30.08,29.85,2,0,6,0.21
2013-8-27,78,66,61,66,63,61,100,89,59,29.89,29.81,3,0,10,0.00
2013-8-28,76,66,60,67,63,60,100,90,69,29.94,29.83,8,1,16,0.05
2013-8-29,67,62,58,60,59,57,97,90,77,30.03,29.93,7,2,13,0.00
2013-8-30,74,63,58,67,61,57,100,91,75,29.96,29.74,2,0,17,0.59
2013-8-31,71,65,58,67,63,58,100,95,79,29.76,29.71,2,0,6,0.07
2013-9-1,76,67,60,64,62,60,100,84,59,29.83,29.72,5,0,12,0.02
2013-9-2,66,63,60,63,61,59,100,93,87,29.83,29.67,9,4,20,0.59
2013-9-3,66,60,57,61,58,57,100,96,80,29.73,29.64,2,0,7,0.07
2013-9-4,67,57,52,57,53,50,100,88,56,29.85,29.72,6,1,16,0.02
2013-9-5,56,48,39,50,41,36,97,80,52,30.11,29.84,2,0,15,0.00
2013-9-6,61,48,34,44,38,33,97,72,44,30.21,30.03,5,1,15,0.00
2013-9-7,68,54,46,52,47,41,96,78,50,30.03,29.76,6,1,16,0.02
2013-9-8,54,48,38,53,44,34,100,85,61,30.03,29.69,3,1,25,0.16
2013-9-9,61,48,34,46,40,33,100,77,49,30.18,30.03,5,1,13,0.00
2013-9-10,60,55,48,60,53,44,100,94,77,30.08,29.98,1,0,3,0.10
2013-9-11,83,69,60,72,65,60,100,89,58,30.00,29.82,5,1,16,1.17
2013-9-12,69,64,61,67,63,61,100,98,92,29.89,29.57,2,0,9,0.57
2013-9-13,61,55,49,61,55,49,100,100,97,29.74,29.55,3,0,13,0.52
2013-9-14,50,47,45,49,47,45,100,100,96,30.03,29.74,2,0,12,0.40
2013-9-15,60,49,39,51,46,39,100,90,70,30.10,29.98,3,0,12,0.00
2013-9-16,50,43,32,49,42,31,100,93,79,30.28,29.95,3,0,15,0.28
2013-9-17,57,43,30,43,37,30,100,83,54,30.46,30.29,5,0,13,0.29
2013-9-18,65,49,36,47,42,36,100,80,43,30.32,30.12,5,0,13,0.00
2013-9-19,71,54,40,50,46,40,100,78,39,30.14,30.02,5,0,12,0.00
2013-9-20,74,59,46,55,50,45,100,76,42,30.07,29.93,7,2,13,0.00
2013-9-22,56,49,41,54,48,40,100,96,89,29.76,29.52,2,0,12,1.10
2013-9-23,41,39,36,39,38,35,100,95,89,29.98,29.76,3,1,17,0.04
2013-9-24,44,40,37,40,37,35,97,90,85,29.98,29.88,3,1,15,0.00
2013-9-25,49,43,36,44,41,36,100,93,81,30.01,29.90,2,0,7,0.00
2013-9-26,52,46,41,47,44,40,97,91,83,30.17,30.01,3,0,10,0.00
2013-9-27,65,52,44,52,47,43,100,86,58,30.27,30.16,3,0,9,0.00
2013-9-28,70,53,40,54,48,40,100,85,51,30.35,30.23,3,0,9,0.00
2013-9-29,68,55,43,52,47,43,100,79,46,30.23,30.04,6,1,12,0.00
2013-9-30,69,54,42,51,47,41,100,79,46,30.07,29.94,5,0,6,0.00
2013-10-1,69,54,41,54,49,41,100,83,50,29.97,29.84,5,0,13,0.00
2013-10-2,68,57,49,58,50,40,100,80,52,29.89,29.74,8,1,17,0.00
2013-10-3,64,54,44,46,42,39,92,67,45,30.04,29.89,6,1,14,0.00
2013-10-4,60,50,42,47,43,40,96,79,56,30.09,30.03,3,0,7,0.00
2013-10-5,58,48,42,43,38,32,91,70,39,30.16,30.07,2,0,7,0.00
2013-10-6,53,45,41,44,38,33,97,78,58,30.20,30.08,10,4,20,0.25
2013-10-7,62,53,45,59,50,44,97,92,85,30.08,29.63,17,7,31,0.00
2013-10-8,50,42,37,38,36,34,94,80,60,30.39,30.00,5,1,14,0.00
2013-10-9,60,45,32,40,36,32,100,75,38,30.48,30.34,7,1,13,0.00
2013-10-10,66,50,37,45,39,35,97,70,38,30.34,30.18,3,0,9,0.00
2013-10-11,72,54,38,49,41,30,88,64,32,30.18,30.10,3,0,12,0.00
2013-10-12,62,54,48,52,49,46,95,83,69,30.33,30.17,8,3,14,0.00
2013-10-13,52,47,44,49,46,44,100,96,87,30.39,30.33,8,2,14,0.00
2013-10-14,50,47,42,50,47,42,100,100,97,30.32,30.22,0,0,3,0.17
2013-10-15,52,47,46,49,47,46,100,100,90,30.27,30.11,1,0,6,0.00
2013-10-16,59,52,49,51,48,44,94,86,70,30.12,29.78,10,3,18,0.00
2013-10-17,57,50,44,52,46,42,100,86,66,29.79,29.67,3,0,12,0.14
2013-10-18,51,46,41,49,44,39,100,93,82,29.80,29.55,7,1,17,0.47
2013-10-19,56,47,39,42,39,37,93,75,56,29.88,29.64,5,1,13,0.00
2013-10-20,50,43,36,43,35,27,96,75,44,29.92,29.57,7,2,20,0.07
2013-10-21,52,43,30,40,35,28,94,74,60,30.05,29.89,6,1,12,0.02
2013-10-22,49,42,30,44,37,29,97,85,65,29.89,29.62,7,1,16,0.18
2013-10-23,42,34,29,34,29,26,98,84,63,29.72,29.60,5,0,13,0.00
2013-10-24,34,31,27,30,27,22,95,84,72,29.80,29.60,6,1,18,0.00
2013-10-25,34,31,29,30,27,24,95,85,75,30.08,29.80,3,0,12,0.03
2013-10-26,35,30,24,32,28,22,96,90,83,30.08,29.81,8,2,16,0.03
2013-10-27,39,35,31,35,31,26,93,84,72,29.96,29.74,5,1,15,0.03
2013-10-28,35,30,22,34,27,19,99,86,77,30.36,29.96,5,1,17,0.05
2013-10-29,34,25,18,24,20,16,96,84,60,30.47,30.36,3,0,12,0.01
2013-10-30,35,28,21,29,24,20,95,84,63,30.37,30.19,5,0,12,0.00
2013-10-31,51,39,30,51,37,28,100,91,71,30.24,29.67,7,2,15,0.50
2013-11-1,58,54,45,57,50,40,100,87,62,29.66,29.16,13,5,32,0.46
2013-11-2,46,40,29,44,39,28,100,95,87,29.83,29.50,6,0,14,0.08
2013-11-3,29,24,18,28,19,14,95,81,63,30.48,29.83,6,1,13,0.01
2013-11-4,33,23,14,18,15,12,92,73,49,30.71,30.49,5,0,9,0.00
2013-11-5,41,32,25,27,20,15,82,62,42,30.71,30.45,9,2,15,0.00
2013-11-6,52,41,30,41,33,26,87,72,49,30.45,29.84,12,2,20,0.00
2013-11-7,49,40,28,47,38,26,100,92,77,29.84,29.64,7,1,17,0.51
2013-11-8,30,28,26,26,24,22,92,88,80,29.99,29.73,5,1,17,0.00
2013-11-9,30,27,24,25,21,19,94,80,68,30.13,29.99,5,1,15,0.01
2013-11-10,36,31,27,34,30,25,100,96,93,29.99,29.67,6,1,14,0.20
2013-11-11,31,28,26,31,27,24,100,95,92,30.01,29.76,3,0,12,0.00
2013-11-12,31,19,16,29,17,14,96,92,90,30.16,29.80,3,1,12,0.00
2013-11-13,20,16,12,18,13,10,92,89,81,30.27,30.04,2,0,10,0.00
2013-11-14,31,26,17,29,24,15,93,90,88,30.07,29.99,2,0,7,0.00
2013-11-15,43,34,29,31,26,22,91,73,52,30.19,30.06,5,0,12,0.46
2013-11-16,50,38,30,31,26,23,88,64,37,30.30,30.18,5,0,10,0.11
2013-11-17,44,40,35,42,33,23,97,76,56,30.29,29.81,10,4,23,0.02
2013-11-18,50,43,33,50,40,29,100,91,78,29.80,29.38,13,4,24,0.57
2013-11-19,33,24,21,30,19,15,90,81,68,30.26,29.51,7,2,26,0.00
2013-11-20,29,21,16,15,13,11,87,69,49,30.68,30.26,3,1,18,0.01
2013-11-21,44,28,15,22,11,4,92,56,25,30.68,30.35,3,0,9,0.01
2013-11-22,32,30,28,32,25,11,100,83,47,30.35,29.74,2,0,6,0.08
2013-11-23,33,22,12,33,19,9,100,89,82,29.85,29.68,6,2,23,0.01
2013-11-24,12,9,4,9,5,-1,90,85,76,30.13,29.71,7,2,26,0.00
2013-11-25,21,10,2,13,3,-1,87,74,51,30.36,30.13,5,1,15,0.00
2013-11-26,30,25,21,25,19,12,95,75,65,30.26,30.06,7,2,14,0.00
2013-11-27,44,32,26,43,31,25,97,96,94,30.06,29.32,20,6,31,0.57
2013-11-28,26,12,5,25,10,3,96,90,86,30.39,29.35,5,1,23,0.00
2013-11-29,13,7,2,9,5,0,99,89,84,30.79,30.39,1,0,6,0.00
2013-11-30,19,10,-2,14,6,-5,91,82,69,30.84,30.39,6,1,14,0.00
2013-12-1,28,25,18,26,22,14,96,90,78,30.39,30.08,6,0,12,0.00
2013-12-2,32,30,27,31,28,25,97,93,89,30.08,29.91,6,2,12,0.02
2013-12-3,38,31,27,32,29,24,100,91,79,29.94,29.88,3,0,7,0.16
2013-12-4,28,26,21,25,23,20,98,90,84,30.20,29.93,3,0,13,0.00
2013-12-5,44,32,20,44,30,18,100,92,84,30.20,29.84,9,3,21,0.15
2013-12-6,43,30,24,43,28,19,100,93,82,30.09,29.87,3,0,14,0.18
2013-12-7,24,18,11,21,12,6,88,77,61,30.42,30.06,8,1,23,0.00
2013-12-8,17,12,8,9,6,4,86,76,63,30.58,30.41,5,0,12,0.00
2013-12-9,28,19,12,28,15,6,97,86,75,30.53,29.84,17,5,30,0.00
2013-12-10,28,20,11,27,14,5,95,79,66,29.86,29.73,7,1,20,0.00
2013-12-11,16,11,6,13,8,2,91,87,79,30.12,29.87,5,1,16,0.00
2013-12-12,6,1,-8,3,-4,-11,87,80,67,30.26,29.96,5,1,12,0.00
2013-12-13,9,1,-12,6,-3,-16,90,82,73,30.44,29.87,5,1,16,0.00
2013-12-14,3,-6,-17,-1,-12,-21,95,76,62,30.70,30.39,12,2,20,0.00
2013-12-15,14,10,3,12,7,-1,94,90,84,30.37,29.56,20,5,33,0.00
2013-12-16,7,-1,-12,4,-5,-16,89,83,75,30.27,29.68,6,1,16,0.00
2013-12-17,9,-4,-20,6,-8,-24,88,80,67,30.33,30.14,8,2,16,0.00
2013-12-18,19,14,9,16,12,6,93,90,87,30.14,29.93,3,0,12,0.00
2013-12-19,25,20,14,24,18,12,94,93,91,30.08,29.90,3,0,13,0.00
2013-12-20,31,27,24,31,26,23,100,97,94,30.11,29.88,6,1,12,0.00
2013-12-21,43,35,31,43,35,31,100,100,100,29.92,29.77,3,0,12,1.02
2013-12-22,31,28,24,31,27,24,100,99,97,29.99,29.75,12,1,21,0.51
2013-12-23,31,28,19,31,28,18,100,99,95,30.10,29.97,0,0,0,0.00
2013-12-24,19,9,-1,18,7,-3,95,91,88,30.24,30.08,0,0,0,0.00
2013-12-25,6,0,-7,3,-3,-10,91,88,86,30.58,30.25,0,0,0,0.00
2013-12-26,21,14,6,20,12,4,95,92,89,30.50,30.15,0,0,0,0.68
2013-12-27,21,17,15,19,16,14,95,94,92,30.18,30.11,5,0,22,0.00
2013-12-28,30,24,14,30,23,12,100,97,93,30.13,29.95,3,1,12,0.00
2013-12-29,31,30,29,31,30,29,100,100,100,30.00,29.54,5,1,12,0.06
2013-12-30,31,10,-7,31,8,-10,100,91,85,30.19,29.52,5,1,17,0.00
2013-12-31,4,-2,-7,2,-5,-10,91,87,82,30.19,30.07,2,0,5,0.00
2014-1-1,5,-2,-14,2,-6,-18,90,85,82,30.47,30.14,5,1,20,0.00
2014-1-2,1,-8,-18,-2,-12,-22,87,84,81,30.49,30.08,3,0,9,0.00